D1900 Weather Reports


time (UTC)temp
C
wind
direction
speed
KPH
gust
KPH
rain 1hr
cm
rain 24hr
cm
rain mn
cm
humidity
%
barometer
mb
20260504174914 20 236 6.4 16.1 0.36 0.36 0.36 34 997.5
20260504174416 20 192 6.4 16.1 0.36 0.36 0.36 34 997.5
20260504173913 20 121 6.4 16.1 0.36 0.36 0.36 35 997.6
20260504173418 20 162 4.8 14.5 0.36 0.36 0.36 35 997.8
20260504173143 19 308 6.4 14.5 0.36 0.36 0.36 35 997.8
20260504172418 19 184 8.0 16.1 0.36 0.36 0.36 33 997.8
20260504171912 19 183 8.0 22.5 0.36 0.36 0.36 33 997.8
20260504171648 20 234 6.4 22.5 0.36 0.36 0.36 33 997.9
20260504170912 20 253 4.8 19.3 0.36 0.36 0.36 33 998.0
20260504170415 20 36 4.8 12.9 0.36 0.36 0.36 33 997.9
20260504170143 20 253 4.8 11.3 0.36 0.36 0.36 34 998.0
20260504160411 18 286 4.8 17.7 0.00 0.00 0.00 36 998.4
20260504150904 17 263 6.4 16.1 0.00 0.00 0.00 37 999.3
20260504150405 17 162 4.8 14.5 0.00 0.00 0.00 37 999.3
20260504140903 16 258 3.2 9.7 0.00 0.00 0.00 40 999.7
20260504140405 16 135 3.2 11.3 0.00 0.00 0.00 42 999.8
20260504130400 13 189 3.2 11.3 0.00 0.00 0.00 47 1000.4
20260504110340 8 173 1.6 4.8 0.00 0.00 0.00 61 1000.7
20260504110109 8 174 1.6 4.8 0.00 0.00 0.00 63 1000.7
20260504100339 6 185 1.6 3.2 0.00 0.00 0.00 69 1000.3
20260504081847 6 108 1.6 6.4 0.00 0.00 0.00 68 999.8
20260504081348 6 52 0.0 3.2 0.00 0.00 0.00 67 999.7
20260504080848 6 0 0.0 3.2 0.00 0.00 0.00 68 999.8
20260504080346 6 141 0.0 3.2 0.00 0.00 0.00 69 999.8
20260504070341 6 155 3.2 6.4 0.00 0.00 0.00 63 999.7
20260504050333 5 0 0.0 3.2 0.00 0.00 0.00 72 1000.0
20260504045832 5 0 0.0 3.2 0.00 0.00 0.00 67 999.9
20260504045330 5 168 0.0 3.2 0.00 0.00 0.00 65 1000.0
20260504044830 4 95 0.0 3.2 0.00 0.00 0.00 71 1000.1
20260504044331 4 0 0.0 3.2 0.00 0.00 0.00 72 1000.2
20260504043831 4 185 1.6 4.8 0.00 0.00 0.00 72 1000.2
20260504043332 4 0 3.2 6.4 0.00 0.00 0.00 74 1000.2
20260504042831 4 186 3.2 6.4 0.00 0.00 0.00 72 1000.1
20260504042328 4 172 1.6 4.8 0.00 0.00 0.00 73 1000.1
20260504042058 5 116 1.6 3.2 0.00 0.00 0.00 68 1000.1
20260504041327 5 132 3.2 3.2 0.00 0.00 0.00 70 1000.1
20260504040825 5 132 3.2 3.2 0.00 0.00 0.00 70 1000.1
20260504040327 5 156 1.6 1.6 0.00 0.00 0.00 71 1000.0
20260504035715 5 0 0.0 3.2 0.00 0.00 0.00 69 1000.0
20260504034944 5 0 1.6 3.2 0.00 0.00 0.00 69 999.9
20260504034444 5 168 1.6 3.2 0.00 0.00 0.00 70 999.8
20260504033944 5 106 0.0 3.2 0.00 0.00 0.00 72 999.8
20260504033443 5 0 0.0 3.2 0.00 0.00 0.00 67 999.7
20260504032944 5 112 1.6 3.2 0.00 0.00 0.00 69 999.8
20260504032444 5 0 1.6 3.2 0.00 0.00 0.00 68 999.8
20260504031944 5 160 0.0 3.2 0.00 0.00 0.00 69 999.9
20260504031444 5 145 1.6 3.2 0.00 0.00 0.00 71 999.8
20260504030940 5 117 1.6 3.2 0.00 0.00 0.00 69 999.8
20260504030440 5 138 0.0 3.2 0.00 0.00 0.00 67 999.8
20260504025940 5 0 1.6 3.2 0.00 0.00 0.00 68 999.8
20260504025447 5 0 0.0 3.2 0.00 0.00 0.00 69 999.7
20260504025440 5 0 1.6 3.2 0.00 0.00 0.00 70 999.8
20260504024710 6 96 0.0 3.2 0.00 0.00 0.00 68 999.7
20260504023939 6 74 0.0 4.8 0.00 0.00 0.00 64 999.7
20260504023438 6 0 1.6 4.8 0.00 0.00 0.00 64 999.7
20260504022939 6 320 0.0 3.2 0.00 0.00 0.00 62 999.6
20260504022439 6 0 1.6 3.2 0.00 0.00 0.00 61 999.6
20260504021935 6 0 1.6 4.8 0.00 0.00 0.00 61 999.6
20260504021706 6 112 1.6 4.8 0.00 0.00 0.00 60 999.5
20260504020934 7 160 1.6 4.8 0.00 0.00 0.00 58 999.5
20260504020433 7 159 1.6 4.8 0.00 0.00 0.00 58 999.4
20260504020204 7 0 3.2 6.4 0.00 0.00 0.00 58 999.4
20260504015433 7 177 3.2 6.4 0.00 0.00 0.00 57 999.4
20260504014934 7 181 3.2 6.4 0.00 0.00 0.00 56 999.3
20260504014436 7 193 0.0 6.4 0.00 0.00 0.00 50 999.2
20260504013934 7 0 0.0 1.6 0.00 0.00 0.00 49 999.2
20260504013434 7 0 0.0 1.6 0.00 0.00 0.00 48 999.2
20260504012934 7 0 0.0 1.6 0.00 0.00 0.00 48 999.1
20260504012434 7 0 0.0 1.6 0.00 0.00 0.00 51 999.1
20260504011933 7 0 0.0 1.6 0.00 0.00 0.00 51 999.1
20260504011434 7 0 0.0 1.6 0.00 0.00 0.00 51 999.0
20260504010934 8 0 0.0 1.6 0.00 0.00 0.00 48 998.9
20260504010430 8 233 0.0 1.6 0.00 0.00 0.00 46 998.8
20260504005930 8 0 0.0 1.6 0.00 0.00 0.00 45 998.7
20260504005430 8 0 0.0 1.6 0.00 0.00 0.00 45 998.7
20260504004928 8 0 0.0 1.6 0.00 0.00 0.00 46 998.6
20260504004428 8 0 0.0 1.6 0.00 0.00 0.00 46 998.5
20260504003929 8 0 0.0 1.6 0.00 0.00 0.00 49 998.4
20260504003428 8 0 0.0 1.6 0.00 0.00 0.00 46 998.4
20260504002929 8 0 0.0 1.6 0.00 0.00 0.00 46 998.3
20260504002429 9 21 0.0 1.6 0.00 0.00 0.00 43 998.2
20260504001929 9 323 0.0 1.6 0.00 0.00 0.00 43 998.1
20260504001428 10 0 0.0 1.6 0.00 0.00 0.00 41 998.0
20260504000929 10 0 0.0 3.2 0.00 0.00 0.00 40 997.9
20260504000431 10 0 1.6 4.8 0.00 0.00 0.00 41 997.9
20260503235926 10 24 1.6 4.8 0.00 0.00 0.00 40 997.8
20260503235425 11 0 1.6 6.4 0.00 0.00 0.00 38 997.8
20260503234923 11 345 3.2 6.4 0.00 0.00 0.00 38 997.8
20260503234428 11 289 1.6 8.0 0.00 0.00 0.00 37 997.7
20260503233924 11 269 3.2 11.3 0.00 0.00 0.00 36 997.7
20260503233424 11 307 4.8 11.3 0.00 0.00 0.00 36 997.7
20260503232924 11 328 3.2 11.3 0.00 0.00 0.00 37 997.7
20260503232654 12 286 4.8 14.5 0.00 0.00 0.00 36 997.6
20260503231921 12 309 4.8 14.5 0.00 0.00 0.00 35 997.6
20260503231423 12 321 6.4 17.7 0.00 0.00 0.00 35 997.5
20260503230914 12 347 8.0 17.7 0.00 0.00 0.00 34 997.5
20260503230649 12 316 4.8 17.7 0.00 0.00 0.00 34 997.5
20260503225915 12 342 6.4 16.1 0.00 0.00 0.00 35 997.5
20260503225419 12 338 6.4 16.1 0.00 0.00 0.00 34 997.5
20260503224915 12 291 6.4 20.9 0.00 0.00 0.00 36 997.5
20260503224418 12 299 8.0 20.9 0.00 0.00 0.00 38 997.4
20260503223915 12 316 9.7 20.9 0.00 0.00 0.00 36 997.3
20260503223418 12 332 9.7 17.7 0.00 0.00 0.00 36 997.4
20260503222915 11 334 11.3 24.1 0.00 0.00 0.00 37 997.3
20260503222417 11 301 14.5 24.1 0.00 0.00 0.00 37 997.3
20260503221914 11 330 11.3 20.9 0.00 0.00 0.00 36 997.3
20260503221418 11 320 9.7 20.9 0.00 0.00 0.00 38 997.4
20260503221140 11 342 11.3 20.9 0.00 0.00 0.00 39 997.4
20260503220411 11 322 14.5 20.9 0.00 0.00 0.00 38 997.4
20260503215910 11 320 14.5 22.5 0.00 0.00 0.00 38 997.4
20260503215411 11 330 14.5 24.1 0.00 0.00 0.00 39 997.5
20260503214910 11 329 14.5 24.1 0.00 0.00 0.00 39 997.4
20260503214411 11 8 14.5 24.1 0.00 0.00 0.00 39 997.4
20260503213910 11 325 14.5 24.1 0.00 0.00 0.00 40 997.4
20260503213411 11 325 14.5 37.0 0.00 0.00 0.00 41 997.4
20260503213140 11 306 16.1 37.0 0.00 0.00 0.00 38 997.3
20260503212411 11 330 16.1 37.0 0.00 0.00 0.00 40 997.3
20260503211908 11 318 14.5 22.5 0.00 0.00 0.00 41 997.3
20260503211410 11 333 12.9 22.5 0.00 0.00 0.00 43 997.4
20260503211140 11 306 12.9 22.5 0.00 0.00 0.00 40 997.2
20260503210409 11 329 11.3 22.5 0.00 0.00 0.00 40 997.2
20260503205909 11 290 11.3 20.9 0.00 0.00 0.00 40 997.0
20260503205409 10 1 12.9 25.7 0.00 0.00 0.00 41 997.1
20260503204909 11 309 14.5 29.0 0.00 0.00 0.00 39 997.1
20260503204408 11 345 12.9 29.0 0.00 0.00 0.00 40 997.1
20260503203908 11 352 11.3 20.9 0.00 0.00 0.00 43 997.0
20260503203409 10 347 9.7 19.3 0.00 0.00 0.00 41 997.1
20260503202909 10 55 12.9 20.9 0.00 0.00 0.00 41 997.1
20260503202640 10 4 14.5 27.4 0.00 0.00 0.00 41 997.1
20260503201909 10 22 12.9 27.4 0.00 0.00 0.00 41 997.1
20260503201409 10 348 9.7 17.7 0.00 0.00 0.00 41 997.0
20260503200905 11 289 9.7 17.7 0.00 0.00 0.00 40 997.0
20260503200405 11 340 11.3 20.9 0.00 0.00 0.00 40 997.0
20260503195906 11 340 14.5 22.5 0.00 0.00 0.00 40 996.9
20260503195410 11 358 16.1 29.0 0.00 0.00 0.00 40 997.0
20260503195136 10 336 14.5 29.0 0.00 0.00 0.00 43 996.9
20260503194638 10 331 12.9 24.1 0.00 0.00 0.00 40 996.8
20260503193906 10 329 14.5 24.1 0.00 0.00 0.00 40 996.8
20260503193637 10 321 14.5 24.1 0.00 0.00 0.00 39 996.9
20260503192906 10 342 12.9 24.1 0.00 0.00 0.00 40 996.8
20260503192406 10 322 14.5 29.0 0.00 0.00 0.00 40 996.8
20260503191904 10 327 14.5 29.0 0.00 0.00 0.00 41 996.8
20260503191406 11 337 12.9 20.9 0.00 0.00 0.00 41 996.8
20260503190901 10 317 11.3 20.9 0.00 0.00 0.00 40 996.8
20260503190402 10 337 11.3 27.4 0.00 0.00 0.00 42 996.9
20260503185902 10 345 11.3 27.4 0.00 0.00 0.00 41 996.8
20260503185402 10 5 12.9 27.4 0.00 0.00 0.00 40 996.8
20260503184901 10 314 12.9 24.1 0.00 0.00 0.00 42 996.9
20260503184403 10 317 12.9 22.5 0.00 0.00 0.00 42 996.8
20260503183901 10 9 12.9 27.4 0.00 0.00 0.00 44 997.0
20260503183402 10 321 16.1 32.2 0.00 0.00 0.00 41 996.8
20260503182901 11 333 14.5 32.2 0.00 0.00 0.00 41 996.9
20260503182404 10 338 12.9 27.4 0.00 0.00 0.00 42 996.9
20260503181901 10 351 12.9 27.4 0.00 0.00 0.00 44 997.0
20260503181632 10 327 12.9 24.1 0.00 0.00 0.00 46 996.9
20260503181130 10 301 11.3 24.1 0.00 0.00 0.00 47 997.0
20260503180359 10 313 11.3 25.7 0.00 0.00 0.00 45 996.8
20260503175900 10 301 14.5 25.7 0.00 0.00 0.00 44 996.9